,,,PA_Meas_PMT16A,,PR_Meas_QMR101_102,,RH_Meas_QMH101,,SR_Meas_QMS101,,TA_Meas_QMH101,,GenWind,,GenWind,
date,time,status,PA,status,PR,status,RH,status,SR,status,TA,status,DirAvg,status,SpdAvg,
2009-02-24, 00:00:05,VALID,1002.4,VALID,0,VALID,92.9732,VALID,0,VALID,24.1123,VALID,349,VALID,0,
2009-02-24, 00:01:05,VALID,1002.39,VALID,0,VALID,92.935,VALID,0.100563,VALID,24.091,VALID,349,VALID,0,
2009-02-24, 00:02:05,VALID,1002.42,VALID,0,VALID,92.9503,VALID,0,VALID,24.0521,VALID,349,VALID,0,
2009-02-24, 00:03:05,VALID,1002.4,VALID,0,VALID,92.9884,VALID,0,VALID,24.0734,VALID,349,VALID,0,
2009-02-24, 00:04:05,VALID,1002.4,VALID,0,VALID,93.0189,VALID,0.100563,VALID,24.0539,VALID,349,VALID,0.551953,
2009-02-24, 00:05:05,VALID,1002.39,VALID,0,VALID,93.0571,VALID,0.100563,VALID,24.0326,VALID,349,VALID,0.172656,
2009-02-24, 00:06:05,VALID,1002.38,VALID,0,VALID,93.1181,VALID,0,VALID,24.0326,VALID,349,VALID,0.0828125,
2009-02-24, 00:07:05,VALID,1002.39,VALID,0,VALID,93.1257,VALID,0,VALID,24.0539,VALID,349,VALID,0.0269531,
2009-02-24, 00:08:05,VALID,1002.36,VALID,0,VALID,93.0952,VALID,0,VALID,24.0132,VALID,349,VALID,0,
2009-02-24, 00:09:05,VALID,1002.37,VALID,0,VALID,93.0723,VALID,0,VALID,23.9937,VALID,349,VALID,0.09375,
2009-02-24, 00:10:05,VALID,1002.36,VALID,0,VALID,93.0723,VALID,0.100563,VALID,23.9955,VALID,349,VALID,0.0375,
2009-02-24, 00:11:05,VALID,1002.33,VALID,0,VALID,93.1257,VALID,0,VALID,23.9761,VALID,349,VALID,0,
2009-02-24, 00:12:05,VALID,1002.31,VALID,0,VALID,93.1486,VALID,0,VALID,23.9566,VALID,349,VALID,0,
2009-02-24, 00:13:05,VALID,1002.28,VALID,0,VALID,93.1868,VALID,0,VALID,23.9353,VALID,349,VALID,0,
2009-02-24, 00:14:05,VALID,1002.28,VALID,0,VALID,93.2783,VALID,0,VALID,23.9566,VALID,349,VALID,0,
2009-02-24, 00:15:05,VALID,1002.25,VALID,0,VALID,93.3394,VALID,0,VALID,23.9742,VALID,349,VALID,0,
2009-02-24, 00:16:05,VALID,1002.24,VALID,0,VALID,93.3775,VALID,0,VALID,23.9937,VALID,349,VALID,0,
2009-02-24, 00:17:05,VALID,1002.21,VALID,0,VALID,93.3851,VALID,0,VALID,23.9937,VALID,349,VALID,0,
2009-02-24, 00:18:05,VALID,1002.21,VALID,0,VALID,93.3775,VALID,0,VALID,24.0345,VALID,349,VALID,0,
2009-02-24, 00:19:05,VALID,1002.19,VALID,0,VALID,93.4385,VALID,0,VALID,24.0539,VALID,349,VALID,0,
2009-02-24, 00:20:05,VALID,1002.19,VALID,0,VALID,93.4462,VALID,0,VALID,24.0734,VALID,349,VALID,0,
2009-02-24, 00:21:05,VALID,1002.17,VALID,0,VALID,93.4385,VALID,0,VALID,24.0734,VALID,349,VALID,0,
2009-02-24, 00:22:05,VALID,1002.19,VALID,0,VALID,93.4385,VALID,0,VALID,24.0539,VALID,349,VALID,0,
2009-02-24, 00:23:05,VALID,1002.22,VALID,0,VALID,93.4004,VALID,0,VALID,24.0716,VALID,349,VALID,0,
2009-02-24, 00:24:05,VALID,1002.17,VALID,0,VALID,93.4004,VALID,0,VALID,24.0716,VALID,349,VALID,0,
2009-02-24, 00:25:05,VALID,1002.18,VALID,0,VALID,93.4156,VALID,0,VALID,24.0929,VALID,349,VALID,0,
2009-02-24, 00:26:05,VALID,1002.17,VALID,0,VALID,93.408,VALID,0,VALID,24.0716,VALID,349,VALID,0,
2009-02-24, 00:27:05,VALID,1002.16,VALID,0,VALID,93.4538,VALID,0,VALID,24.0716,VALID,349,VALID,0,
2009-02-24, 00:28:05,VALID,1002.17,VALID,0,VALID,93.4462,VALID,0,VALID,24.1123,VALID,349,VALID,0,
2009-02-24, 00:29:05,VALID,1002.14,VALID,0,VALID,93.4309,VALID,0,VALID,24.091,VALID,349,VALID,0,
2009-02-24, 00:30:05,VALID,1002.13,VALID,0,VALID,93.3928,VALID,0,VALID,24.1318,VALID,349,VALID,0,
2009-02-24, 00:31:05,VALID,1002.1,VALID,0,VALID,93.3928,VALID,0,VALID,24.091,VALID,349,VALID,0,
2009-02-24, 00:32:05,VALID,1002.08,VALID,0,VALID,93.408,VALID,0,VALID,24.1123,VALID,349,VALID,0,
2009-02-24, 00:33:05,VALID,1002.06,VALID,0,VALID,93.4233,VALID,0,VALID,24.1318,VALID,349,VALID,0,
2009-02-24, 00:34:05,VALID,1002.07,VALID,0,VALID,93.4156,VALID,0,VALID,24.1707,VALID,349,VALID,0,
2009-02-24, 00:35:05,VALID,1002.07,VALID,0,VALID,93.3699,VALID,0,VALID,24.1902,VALID,349,VALID,0,
2009-02-24, 00:36:05,VALID,1002.03,VALID,0,VALID,93.3317,VALID,0,VALID,24.1689,VALID,349,VALID,0,
2009-02-24, 00:37:05,VALID,1002.03,VALID,0,VALID,93.2859,VALID,0.100563,VALID,24.1902,VALID,349,VALID,0,
2009-02-24, 00:38:05,VALID,1001.98,VALID,0,VALID,93.3775,VALID,0,VALID,24.2291,VALID,272,VALID,0,
2009-02-24, 00:39:05,VALID,1001.98,VALID,0,VALID,93.3088,VALID,0,VALID,24.2486,VALID,251,VALID,0,
2009-02-24, 00:40:05,VALID,1001.99,VALID,0,VALID,93.2707,VALID,0,VALID,24.2273,VALID,251,VALID,0,
2009-02-24, 00:41:05,VALID,1001.96,VALID,0,VALID,93.2478,VALID,0,VALID,24.2486,VALID,251,VALID,0,
2009-02-24, 00:42:05,VALID,1001.93,VALID,0,VALID,93.2402,VALID,0.100563,VALID,24.2273,VALID,251,VALID,0,
2009-02-24, 00:43:05,VALID,1001.92,VALID,0,VALID,93.2554,VALID,0,VALID,24.2486,VALID,251,VALID,0,
2009-02-24, 00:44:05,VALID,1001.91,VALID,0,VALID,93.1868,VALID,0,VALID,24.2486,VALID,251,VALID,0,
2009-02-24, 00:45:05,VALID,1001.89,VALID,0,VALID,93.08,VALID,0,VALID,24.2078,VALID,251,VALID,0,
2009-02-24, 00:46:05,VALID,1001.88,VALID,0,VALID,93.0189,VALID,0,VALID,24.1902,VALID,251,VALID,0,
2009-02-24, 00:47:04,VALID,1001.86,VALID,0,VALID,92.9884,VALID,0,VALID,24.1707,VALID,251,VALID,0,
2009-02-24, 00:48:04,VALID,1001.83,VALID,0,VALID,93.0113,VALID,0,VALID,24.1513,VALID,337,VALID,0,
2009-02-24, 00:49:04,VALID,1001.84,VALID,0,VALID,93.0266,VALID,0,VALID,24.1123,VALID,337,VALID,0.440234,
2009-02-24, 00:50:04,VALID,1001.83,VALID,0,VALID,93.0571,VALID,0,VALID,24.0716,VALID,337,VALID,0.134375,
2009-02-24, 00:51:04,VALID,1001.8,VALID,0,VALID,93.0876,VALID,0,VALID,24.0734,VALID,337,VALID,0.153516,
2009-02-24, 00:52:04,VALID,1001.79,VALID,0,VALID,93.1334,VALID,0.100563,VALID,24.0734,VALID,337,VALID,0,
2009-02-24, 00:53:04,VALID,1001.77,VALID,0,VALID,93.1944,VALID,0,VALID,24.0326,VALID,337,VALID,0,
2009-02-24, 00:54:04,VALID,1001.77,VALID,0,VALID,93.2554,VALID,0,VALID,24.0326,VALID,337,VALID,0,
2009-02-24, 00:55:04,VALID,1001.72,VALID,0,VALID,93.2402,VALID,0,VALID,24.0539,VALID,337,VALID,0,
2009-02-24, 00:56:04,VALID,1001.7,VALID,0,VALID,93.2707,VALID,0,VALID,24.0557,VALID,337,VALID,0,
2009-02-24, 00:57:04,VALID,1001.68,VALID,0,VALID,93.3699,VALID,0,VALID,24.0345,VALID,337,VALID,0,
2009-02-24, 00:58:04,VALID,1001.65,VALID,0,VALID,93.3851,VALID,0,VALID,24.0326,VALID,337,VALID,0,
2009-02-24, 00:59:04,VALID,1001.62,VALID,0,VALID,93.3775,VALID,0,VALID,24.0521,VALID,337,VALID,0,
2009-02-24, 01:00:04,VALID,1001.57,VALID,0,VALID,93.3394,VALID,0,VALID,24.0716,VALID,337,VALID,0,
2009-02-24, 01:01:04,VALID,1001.54,VALID,0,VALID,93.347,VALID,0,VALID,24.1123,VALID,337,VALID,0.00390625,
2009-02-24, 01:02:04,VALID,1001.52,VALID,0,VALID,93.2936,VALID,0,VALID,24.1318,VALID,337,VALID,0.225781,
2009-02-24, 01:03:04,VALID,1001.51,VALID,0,VALID,93.2783,VALID,0,VALID,24.1494,VALID,338,VALID,0.310547,
2009-02-24, 01:04:04,VALID,1001.46,VALID,0,VALID,93.1639,VALID,0,VALID,24.1884,VALID,5,VALID,0.632422,
2009-02-24, 01:05:04,VALID,1001.45,VALID,0,VALID,93.1257,VALID,0,VALID,24.2097,VALID,4,VALID,0.225391,
2009-02-24, 01:06:04,VALID,1001.43,VALID,0,VALID,93.1181,VALID,0,VALID,24.2273,VALID,4,VALID,0,
2009-02-24, 01:07:04,VALID,1001.46,VALID,0,VALID,93.0266,VALID,0,VALID,24.2273,VALID,4,VALID,0,
2009-02-24, 01:08:04,VALID,1001.44,VALID,0,VALID,92.935,VALID,0,VALID,24.2486,VALID,4,VALID,0.136328,
2009-02-24, 01:09:04,VALID,1001.42,VALID,0,VALID,92.8664,VALID,0,VALID,24.2486,VALID,4,VALID,0.0253906,
2009-02-24, 01:10:04,VALID,1001.41,VALID,0,VALID,92.8206,VALID,0,VALID,24.2681,VALID,4,VALID,0.280859,
2009-02-24, 01:11:04,VALID,1001.37,VALID,0,VALID,92.7367,VALID,0,VALID,24.2291,VALID,4,VALID,0.45625,
2009-02-24, 01:12:04,VALID,1001.36,VALID,0,VALID,92.6909,VALID,0,VALID,24.2097,VALID,4,VALID,0.325781,
2009-02-24, 01:13:04,VALID,1001.35,VALID,0,VALID,92.7519,VALID,0,VALID,24.2097,VALID,4,VALID,0.291406,
2009-02-24, 01:14:04,VALID,1001.33,VALID,0,VALID,92.813,VALID,0,VALID,24.2097,VALID,4,VALID,0.166016,
2009-02-24, 01:15:04,VALID,1001.33,VALID,0,VALID,92.8664,VALID,0,VALID,24.2097,VALID,321,VALID,0.294141,
2009-02-24, 01:16:04,VALID,1001.32,VALID,0,VALID,92.8664,VALID,0,VALID,24.2291,VALID,321,VALID,0,
2009-02-24, 01:17:04,VALID,1001.3,VALID,0,VALID,92.8435,VALID,0,VALID,24.2486,VALID,321,VALID,0,
2009-02-24, 01:18:04,VALID,1001.28,VALID,0,VALID,92.8969,VALID,0,VALID,24.2486,VALID,321,VALID,0,
2009-02-24, 01:19:04,VALID,1001.26,VALID,0,VALID,92.8435,VALID,0,VALID,24.2486,VALID,321,VALID,0,
2009-02-24, 01:20:04,VALID,1001.23,VALID,0,VALID,92.874,VALID,0,VALID,24.2486,VALID,321,VALID,0.3875,
2009-02-24, 01:21:04,VALID,1001.22,VALID,0,VALID,92.8892,VALID,0,VALID,24.2486,VALID,321,VALID,0.0683594,
2009-02-24, 01:22:04,VALID,1001.17,VALID,0,VALID,92.9503,VALID,0,VALID,24.2468,VALID,321,VALID,0,
2009-02-24, 01:23:04,VALID,1001.17,VALID,0,VALID,93.0037,VALID,0,VALID,24.2699,VALID,321,VALID,0.214453,
2009-02-24, 01:24:04,VALID,1001.14,VALID,0,VALID,92.9503,VALID,0,VALID,24.2681,VALID,324,VALID,0.500391,
2009-02-24, 01:25:04,VALID,1001.15,VALID,0,VALID,92.9655,VALID,0,VALID,24.2486,VALID,346,VALID,0.542188,
2009-02-24, 01:26:04,VALID,1001.11,VALID,0,VALID,92.9884,VALID,0,VALID,24.2273,VALID,346,VALID,0.670313,
2009-02-24, 01:27:04,VALID,1001.1,VALID,0,VALID,92.9198,VALID,0,VALID,24.2681,VALID,9,VALID,0.696484,
2009-02-24, 01:28:04,VALID,1001.1,VALID,0,VALID,93.0342,VALID,0,VALID,24.3088,VALID,342,VALID,0.282813,
2009-02-24, 01:29:04,VALID,1001.07,VALID,0,VALID,93.0418,VALID,0,VALID,24.3654,VALID,355,VALID,0.596484,
2009-02-24, 01:30:04,VALID,1001.08,VALID,0,VALID,92.9503,VALID,0,VALID,24.4043,VALID,352,VALID,0.0265625,
2009-02-24, 01:31:04,VALID,1001.04,VALID,0,VALID,92.813,VALID,0,VALID,24.4433,VALID,352,VALID,0.201953,
2009-02-24, 01:32:04,VALID,1001.01,VALID,0,VALID,92.6375,VALID,0,VALID,24.4628,VALID,352,VALID,0.499609,
2009-02-24, 01:33:04,VALID,1001,VALID,0,VALID,92.5612,VALID,0,VALID,24.4822,VALID,352,VALID,0.362891,
2009-02-24, 01:34:04,VALID,1001,VALID,0,VALID,92.5231,VALID,0,VALID,24.5212,VALID,352,VALID,0.288672,
2009-02-24, 01:35:04,VALID,1000.94,VALID,0,VALID,92.4773,VALID,0,VALID,24.5406,VALID,352,VALID,0.507813,
2009-02-24, 01:36:04,VALID,1000.92,VALID,0,VALID,92.3247,VALID,0,VALID,24.5601,VALID,352,VALID,0.359766,
2009-02-24, 01:37:04,VALID,1000.92,VALID,0,VALID,92.1492,VALID,0,VALID,24.5406,VALID,356,VALID,0.587891,
2009-02-24, 01:38:04,VALID,1000.91,VALID,0,VALID,92.1035,VALID,0,VALID,24.5406,VALID,356,VALID,0.511328,
2009-02-24, 01:39:04,VALID,1000.9,VALID,0,VALID,92.0653,VALID,0,VALID,24.5017,VALID,358,VALID,0.523438,
2009-02-24, 01:40:04,VALID,1000.91,VALID,0,VALID,92.2027,VALID,0,VALID,24.4822,VALID,359,VALID,0.352734,
2009-02-24, 01:41:04,VALID,1000.89,VALID,0,VALID,92.3247,VALID,0,VALID,24.4822,VALID,37,VALID,0.234766,
2009-02-24, 01:42:04,VALID,1000.89,VALID,0,VALID,92.5002,VALID,0,VALID,24.5212,VALID,26,VALID,0.218359,
2009-02-24, 01:43:04,VALID,1000.88,VALID,0,VALID,92.5688,VALID,0,VALID,24.5601,VALID,339,VALID,0.158203,
2009-02-24, 01:44:04,VALID,1000.86,VALID,0,VALID,92.5536,VALID,0,VALID,24.638,VALID,339,VALID,0.301953,
2009-02-24, 01:45:04,VALID,1000.86,VALID,0,VALID,92.3934,VALID,0,VALID,24.7159,VALID,298,VALID,0.894141,
2009-02-24, 01:46:04,VALID,1000.85,VALID,0,VALID,92.073,VALID,0,VALID,24.7956,VALID,313,VALID,0.301953,
2009-02-24, 01:47:04,VALID,1000.83,VALID,0,VALID,91.7068,VALID,0,VALID,24.8735,VALID,284,VALID,0.520312,
2009-02-24, 01:48:04,VALID,1000.84,VALID,0,VALID,91.2414,VALID,0,VALID,24.9106,VALID,294,VALID,0.804297,
2009-02-24, 01:49:04,VALID,1000.82,VALID,0,VALID,90.9439,VALID,0,VALID,24.969,VALID,297,VALID,0.162891,
2009-02-24, 01:50:04,VALID,1000.83,VALID,0,VALID,90.7455,VALID,0,VALID,25.0079,VALID,296,VALID,0.108203,
2009-02-24, 01:51:04,VALID,1000.78,VALID,0,VALID,90.5701,VALID,0,VALID,25.0274,VALID,296,VALID,0.156641,
2009-02-24, 01:52:04,VALID,1000.79,VALID,0,VALID,90.4099,VALID,0,VALID,25.0469,VALID,296,VALID,0.0878906,
2009-02-24, 01:53:04,VALID,1000.76,VALID,0,VALID,90.2954,VALID,0,VALID,25.006,VALID,350,VALID,0.297266,
2009-02-24, 01:54:04,VALID,1000.75,VALID,0,VALID,90.2954,VALID,0,VALID,25.0079,VALID,351,VALID,0.468359,
2009-02-24, 01:55:04,VALID,1000.71,VALID,0,VALID,90.2649,VALID,0,VALID,24.9885,VALID,351,VALID,0,
2009-02-24, 01:56:04,VALID,1000.72,VALID,0,VALID,90.2954,VALID,0,VALID,24.9866,VALID,351,VALID,0.0609375,
2009-02-24, 01:57:04,VALID,1000.7,VALID,0,VALID,90.3183,VALID,0,VALID,24.9885,VALID,351,VALID,0.0933594,
2009-02-24, 01:58:04,VALID,1000.7,VALID,0,VALID,90.3412,VALID,0,VALID,24.9476,VALID,351,VALID,0,
2009-02-24, 01:59:04,VALID,1000.66,VALID,0,VALID,90.3488,VALID,0,VALID,24.9671,VALID,351,VALID,0.0519531,
2009-02-24, 02:00:04,VALID,1000.65,VALID,0,VALID,90.387,VALID,0.100563,VALID,24.969,VALID,351,VALID,0.0105469,
2009-02-24, 02:01:04,VALID,1000.66,VALID,0,VALID,90.387,VALID,0,VALID,24.9495,VALID,351,VALID,0,
2009-02-24, 02:02:04,VALID,1000.62,VALID,0,VALID,90.4099,VALID,0.100563,VALID,24.9282,VALID,351,VALID,0.163672,
2009-02-24, 02:03:04,VALID,1000.62,VALID,0,VALID,90.3641,VALID,0,VALID,24.9495,VALID,351,VALID,0.144922,
2009-02-24, 02:04:04,VALID,1000.62,VALID,0,VALID,90.3565,VALID,0,VALID,24.9282,VALID,351,VALID,0,
2009-02-24, 02:05:04,VALID,1000.64,VALID,0,VALID,90.3717,VALID,0.100563,VALID,24.969,VALID,351,VALID,0,
2009-02-24, 02:06:04,VALID,1000.65,VALID,0,VALID,90.3946,VALID,0,VALID,24.9282,VALID,317,VALID,0.304688,
2009-02-24, 02:07:04,VALID,1000.62,VALID,0,VALID,90.3946,VALID,0.100563,VALID,24.969,VALID,17,VALID,0.296094,
2009-02-24, 02:08:04,VALID,1000.62,VALID,0,VALID,90.3641,VALID,0,VALID,24.9476,VALID,17,VALID,0.0910156,
2009-02-24, 02:09:04,VALID,1000.64,VALID,0,VALID,90.3641,VALID,0,VALID,24.969,VALID,14,VALID,0.407031,
2009-02-24, 02:10:04,VALID,1000.64,VALID,0,VALID,90.3031,VALID,0.100563,VALID,24.9866,VALID,353,VALID,0.3,
2009-02-24, 02:11:04,VALID,1000.65,VALID,0,VALID,90.2268,VALID,0,VALID,24.9866,VALID,353,VALID,0.075,
2009-02-24, 02:12:04,VALID,1000.66,VALID,0,VALID,90.1886,VALID,0,VALID,25.0274,VALID,352,VALID,0.184375,
2009-02-24, 02:13:04,VALID,1000.66,VALID,0,VALID,90.12,VALID,0,VALID,25.0041,VALID,335,VALID,0.0117188,
2009-02-24, 02:14:04,VALID,1000.67,VALID,0,VALID,90.0437,VALID,0,VALID,25.045,VALID,349,VALID,0.410547,
2009-02-24, 02:15:04,VALID,1000.67,VALID,0,VALID,90.0132,VALID,0.100563,VALID,25.0663,VALID,346,VALID,0.421094,
2009-02-24, 02:16:04,VALID,1000.68,VALID,0,VALID,89.9979,VALID,0.100563,VALID,25.045,VALID,306,VALID,0.245703,
2009-02-24, 02:17:04,VALID,1000.68,VALID,0,VALID,89.9521,VALID,0.100563,VALID,25.0858,VALID,306,VALID,0.101172,
2009-02-24, 02:18:04,VALID,1000.67,VALID,0,VALID,89.9292,VALID,0,VALID,25.0839,VALID,306,VALID,0.0121094,
2009-02-24, 02:19:04,VALID,1000.68,VALID,0,VALID,89.8987,VALID,0,VALID,25.0858,VALID,306,VALID,0.386719,
2009-02-24, 02:20:04,VALID,1000.66,VALID,0,VALID,89.914,VALID,0,VALID,25.1053,VALID,306,VALID,0.0871094,
2009-02-24, 02:21:04,VALID,1000.63,VALID,0,VALID,89.9292,VALID,0,VALID,25.0644,VALID,300,VALID,0.263281,
2009-02-24, 02:22:04,VALID,1000.64,VALID,0,VALID,89.8453,VALID,0,VALID,25.0644,VALID,309,VALID,0.278516,
2009-02-24, 02:23:04,VALID,1000.6,VALID,0,VALID,89.8148,VALID,0,VALID,25.0644,VALID,309,VALID,0,
2009-02-24, 02:24:04,VALID,1000.58,VALID,0,VALID,89.8606,VALID,0,VALID,25.0858,VALID,309,VALID,0.194531,
2009-02-24, 02:25:04,VALID,1000.56,VALID,0,VALID,89.8301,VALID,0.100563,VALID,25.0858,VALID,301,VALID,0.539453,
2009-02-24, 02:26:04,VALID,1000.54,VALID,0,VALID,89.8072,VALID,0,VALID,25.0858,VALID,304,VALID,0.171875,
2009-02-24, 02:27:04,VALID,1000.53,VALID,0,VALID,89.7614,VALID,0,VALID,25.0839,VALID,304,VALID,0,
2009-02-24, 02:28:04,VALID,1000.52,VALID,0,VALID,89.769,VALID,0,VALID,25.1053,VALID,304,VALID,0.180469,
2009-02-24, 02:29:04,VALID,1000.53,VALID,0,VALID,89.8148,VALID,0,VALID,25.0644,VALID,304,VALID,0,
2009-02-24, 02:30:04,VALID,1000.53,VALID,0,VALID,89.7919,VALID,0,VALID,25.1053,VALID,319,VALID,0.121484,
2009-02-24, 02:31:04,VALID,1000.51,VALID,0,VALID,89.7614,VALID,0,VALID,25.0644,VALID,319,VALID,0,
2009-02-24, 02:32:04,VALID,1000.53,VALID,0,VALID,89.7156,VALID,0,VALID,25.0839,VALID,291,VALID,0.766016,
2009-02-24, 02:33:04,VALID,1000.5,VALID,0,VALID,89.6088,VALID,0.100563,VALID,25.1248,VALID,292,VALID,0.377344,
2009-02-24, 02:34:04,VALID,1000.53,VALID,0,VALID,89.5402,VALID,0,VALID,25.1637,VALID,351,VALID,0.561719,
2009-02-24, 02:35:04,VALID,1000.51,VALID,0,VALID,89.4791,VALID,0,VALID,25.1637,VALID,294,VALID,0.810938,
2009-02-24, 02:36:04,VALID,1000.52,VALID,0,VALID,89.4028,VALID,0,VALID,25.1618,VALID,291,VALID,0,
2009-02-24, 02:37:04,VALID,1000.54,VALID,0,VALID,89.3723,VALID,0,VALID,25.1813,VALID,292,VALID,0.312109,
2009-02-24, 02:38:04,VALID,1000.5,VALID,0,VALID,89.3494,VALID,0.100563,VALID,25.1813,VALID,330,VALID,0.200781,
2009-02-24, 02:39:04,VALID,1000.51,VALID,0,VALID,89.3494,VALID,0.100563,VALID,25.2027,VALID,330,VALID,0.126563,
2009-02-24, 02:40:04,VALID,1000.49,VALID,0,VALID,89.2884,VALID,0,VALID,25.2007,VALID,307,VALID,0.286328,
2009-02-24, 02:41:04,VALID,1000.51,VALID,0,VALID,89.3037,VALID,0,VALID,25.2416,VALID,19,VALID,0.170703,
2009-02-24, 02:42:04,VALID,1000.46,VALID,0,VALID,89.2655,VALID,0.100563,VALID,25.2397,VALID,19,VALID,0,
2009-02-24, 02:43:04,VALID,1000.47,VALID,0,VALID,89.2503,VALID,0.100563,VALID,25.2611,VALID,16,VALID,0.283203,
2009-02-24, 02:44:04,VALID,1000.48,VALID,0,VALID,89.1664,VALID,0,VALID,25.2806,VALID,6,VALID,1.03633,
2009-02-24, 02:45:04,VALID,1000.46,VALID,0,VALID,89.113,VALID,0,VALID,25.2786,VALID,312,VALID,0.49375,
2009-02-24, 02:46:04,VALID,1000.48,VALID,0,VALID,88.9527,VALID,0,VALID,25.3195,VALID,296,VALID,0.992969,
2009-02-24, 02:47:04,VALID,1000.45,VALID,0,VALID,88.6857,VALID,0,VALID,25.3565,VALID,298,VALID,0.315234,
2009-02-24, 02:48:04,VALID,1000.45,VALID,0,VALID,88.4798,VALID,0,VALID,25.3955,VALID,6,VALID,0.737891,
2009-02-24, 02:49:04,VALID,1000.46,VALID,0,VALID,88.4187,VALID,0,VALID,25.4363,VALID,333,VALID,0.214062,
2009-02-24, 02:50:04,VALID,1000.45,VALID,0,VALID,88.3806,VALID,0,VALID,25.4363,VALID,343,VALID,0.50625,
2009-02-24, 02:51:04,VALID,1000.46,VALID,0,VALID,88.3501,VALID,0,VALID,25.4344,VALID,302,VALID,0.155859,
2009-02-24, 02:52:04,VALID,1000.45,VALID,0,VALID,88.2814,VALID,0.100563,VALID,25.4539,VALID,304,VALID,0.319141,
2009-02-24, 02:53:04,VALID,1000.44,VALID,0,VALID,88.1822,VALID,0,VALID,25.4753,VALID,343,VALID,0.758984,
2009-02-24, 02:54:04,VALID,1000.43,VALID,0,VALID,88.0907,VALID,0,VALID,25.4539,VALID,328,VALID,0.304297,
2009-02-24, 02:55:04,VALID,1000.44,VALID,0,VALID,88.0983,VALID,0,VALID,25.4539,VALID,302,VALID,0.348828,
2009-02-24, 02:56:04,VALID,1000.45,VALID,0,VALID,88.1365,VALID,0,VALID,25.4753,VALID,300,VALID,0.560938,
2009-02-24, 02:57:04,VALID,1000.47,VALID,0,VALID,88.1899,VALID,0,VALID,25.4948,VALID,352,VALID,0.607031,
2009-02-24, 02:58:04,VALID,1000.45,VALID,0,VALID,88.2204,VALID,0,VALID,25.4753,VALID,280,VALID,0.149219,
2009-02-24, 02:59:04,VALID,1000.49,VALID,0,VALID,88.2051,VALID,0.100563,VALID,25.4734,VALID,352,VALID,0.613281,
2009-02-24, 03:00:04,VALID,1000.48,VALID,0,VALID,88.2356,VALID,0,VALID,25.4753,VALID,357,VALID,0.177734,
2009-02-24, 03:01:04,VALID,1000.46,VALID,0,VALID,88.2127,VALID,0,VALID,25.4753,VALID,357,VALID,0.239063,
2009-02-24, 03:02:04,VALID,1000.51,VALID,0,VALID,88.2738,VALID,0,VALID,25.4539,VALID,337,VALID,0.0523437,
2009-02-24, 03:03:04,VALID,1000.53,VALID,0,VALID,88.3195,VALID,0,VALID,25.4539,VALID,337,VALID,0.139453,
2009-02-24, 03:04:04,VALID,1000.51,VALID,0,VALID,88.3501,VALID,0,VALID,25.4753,VALID,335,VALID,0.0523437,
2009-02-24, 03:05:04,VALID,1000.51,VALID,0,VALID,88.3958,VALID,0,VALID,25.4539,VALID,336,VALID,0.372656,
2009-02-24, 03:06:04,VALID,1000.52,VALID,0,VALID,88.3806,VALID,0,VALID,25.4344,VALID,336,VALID,0,
2009-02-24, 03:07:04,VALID,1000.54,VALID,0,VALID,88.434,VALID,0,VALID,25.4149,VALID,336,VALID,0.186719,
2009-02-24, 03:08:04,VALID,1000.55,VALID,0,VALID,88.4721,VALID,0,VALID,25.3955,VALID,333,VALID,0.319141,
2009-02-24, 03:09:04,VALID,1000.55,VALID,0,VALID,88.5866,VALID,0.100563,VALID,25.4149,VALID,321,VALID,0.214062,
2009-02-24, 03:10:04,VALID,1000.54,VALID,0,VALID,88.701,VALID,0,VALID,25.4169,VALID,321,VALID,0.158984,
2009-02-24, 03:11:04,VALID,1000.55,VALID,0,VALID,88.7773,VALID,0,VALID,25.376,VALID,321,VALID,0.0078125,
2009-02-24, 03:12:04,VALID,1000.55,VALID,0,VALID,88.8231,VALID,0,VALID,25.3779,VALID,321,VALID,0,
2009-02-24, 03:13:04,VALID,1000.56,VALID,0,VALID,88.8536,VALID,0,VALID,25.3584,VALID,320,VALID,0.484766,
2009-02-24, 03:14:04,VALID,1000.55,VALID,0,VALID,88.8078,VALID,0,VALID,25.3584,VALID,320,VALID,0.0730469,
2009-02-24, 03:15:04,VALID,1000.58,VALID,0,VALID,88.8078,VALID,0,VALID,25.3974,VALID,284,VALID,0.914844,
2009-02-24, 03:16:04,VALID,1000.56,VALID,0,VALID,88.6171,VALID,0,VALID,25.4363,VALID,307,VALID,0.56875,
2009-02-24, 03:17:04,VALID,1000.56,VALID,0,VALID,88.5866,VALID,0,VALID,25.4558,VALID,343,VALID,0.630078,
2009-02-24, 03:18:04,VALID,1000.55,VALID,0,VALID,88.4645,VALID,0,VALID,25.4539,VALID,348,VALID,0.435937,
2009-02-24, 03:19:04,VALID,1000.57,VALID,0,VALID,88.3882,VALID,0,VALID,25.4948,VALID,348,VALID,0.135156,
2009-02-24, 03:20:04,VALID,1000.56,VALID,0,VALID,88.3043,VALID,0,VALID,25.5142,VALID,348,VALID,0.167187,
2009-02-24, 03:21:04,VALID,1000.51,VALID,0,VALID,88.2204,VALID,0,VALID,25.5142,VALID,348,VALID,0,
2009-02-24, 03:22:04,VALID,1000.55,VALID,0,VALID,88.1975,VALID,0,VALID,25.5337,VALID,342,VALID,0.178125,
2009-02-24, 03:23:04,VALID,1000.52,VALID,0,VALID,87.8694,VALID,0,VALID,25.5727,VALID,276,VALID,0.859375,
2009-02-24, 03:24:04,VALID,1000.5,VALID,0,VALID,87.5948,VALID,0,VALID,25.6292,VALID,360,VALID,0.504687,
2009-02-24, 03:25:04,VALID,1000.51,VALID,0,VALID,87.3049,VALID,0,VALID,25.6681,VALID,360,VALID,0.454297,
2009-02-24, 03:26:04,VALID,1000.49,VALID,0,VALID,87.3049,VALID,0,VALID,25.7304,VALID,233,VALID,0.753906,
2009-02-24, 03:27:04,VALID,1000.46,VALID,0,VALID,87.0379,VALID,0,VALID,25.7889,VALID,250,VALID,0.592969,
2009-02-24, 03:28:04,VALID,1000.48,VALID,0,VALID,86.6183,VALID,0,VALID,25.8668,VALID,316,VALID,0.890234,
2009-02-24, 03:29:04,VALID,1000.44,VALID,0,VALID,85.9165,VALID,0,VALID,25.9252,VALID,270,VALID,1.19687,
2009-02-24, 03:30:04,VALID,1000.46,VALID,0,VALID,85.3061,VALID,0,VALID,26.0206,VALID,230,VALID,0.550391,
2009-02-24, 03:31:04,VALID,1000.47,VALID,0,VALID,84.8866,VALID,0,VALID,26.1375,VALID,257,VALID,0.469922,
2009-02-24, 03:32:04,VALID,1000.43,VALID,0,VALID,84.3678,VALID,0,VALID,26.2349,VALID,274,VALID,0.46875,
2009-02-24, 03:33:04,VALID,1000.44,VALID,0,VALID,84.2152,VALID,0,VALID,26.2933,VALID,273,VALID,0.384375,
2009-02-24, 03:34:04,VALID,1000.43,VALID,0,VALID,83.9406,VALID,0,VALID,26.3518,VALID,333,VALID,0.710156,
2009-02-24, 03:35:04,VALID,1000.46,VALID,0,VALID,83.3837,VALID,0,VALID,26.4102,VALID,232,VALID,1.17422,
2009-02-24, 03:36:04,VALID,1000.45,VALID,0,VALID,82.781,VALID,0,VALID,26.4687,VALID,273,VALID,1.89258,
2009-02-24, 03:37:04,VALID,1000.45,VALID,0,VALID,82.3995,VALID,0,VALID,26.5661,VALID,351,VALID,0.657031,
2009-02-24, 03:38:04,VALID,1000.49,VALID,0,VALID,81.0874,VALID,0,VALID,26.5855,VALID,291,VALID,0.682422,
2009-02-24, 03:39:04,VALID,1000.48,VALID,0,VALID,80.7288,VALID,0,VALID,26.6245,VALID,276,VALID,1.31328,
2009-02-24, 03:40:04,VALID,1000.54,VALID,0,VALID,78.8979,VALID,0,VALID,26.6245,VALID,281,VALID,1.63906,
2009-02-24, 03:41:04,VALID,1000.52,VALID,0,VALID,78.6461,VALID,0,VALID,26.644,VALID,238,VALID,1.2543,
2009-02-24, 03:42:04,VALID,1000.55,VALID,0,VALID,78.4249,VALID,0,VALID,26.6635,VALID,264,VALID,1.6668,
2009-02-24, 03:43:04,VALID,1000.59,VALID,0,VALID,77.8298,VALID,0,VALID,26.6809,VALID,285,VALID,1.89648,
2009-02-24, 03:44:04,VALID,1000.6,VALID,0,VALID,77.7993,VALID,0,VALID,26.7024,VALID,278,VALID,1.15156,
2009-02-24, 03:45:04,VALID,1000.57,VALID,0,VALID,78.0129,VALID,0,VALID,26.7239,VALID,205,VALID,0.531641,
2009-02-24, 03:46:04,VALID,1000.58,VALID,0,VALID,77.5552,VALID,0,VALID,26.683,VALID,159,VALID,0.839063,
2009-02-24, 03:47:04,VALID,1000.64,VALID,0,VALID,77.7154,VALID,0,VALID,26.6635,VALID,199,VALID,0.518359,